Content
SEND FEEDBACK

Daily
Averages
Monthly
Summary
United States of America

BLACK HAWK, SOUTH DAKOTA


Home > North America > United States > South Dakota
Elevation: 3352 feet     Latitude: 44 05N     Longitude: 103 16W

WEATHER
 
SELECT A DAY
Number of Records: 204,315;   Date Range: 1/1/95 - 9/18/14
 
SHARE

PRINT THIS DATA

[ ← Previous Day ]
WEATHER ALMANAC - FEBRUARY 28, 2013
[ Next Day → ]
[ °C ]   °F
Weather ElementAverageHighLow
Temperature31.6 °F41.5 °F (12:55 pm)15.1 °F (5:55 am)
Dewpoint21.9 °F28.4 °F (2:22 pm)12.4 °F (5:55 am)
Humidity69.4 %92 % (4:55 am)44 % (1:55 pm)
Barometer30.27 in30.32 in (6:55 am)30.23 in (12:55 pm)
Wind Speed6.3 mph20.7 mph (2:17 pm)
Wind Gust25.3 mph (2:17 pm)
Weather ElementAverage
Visibility9.3 mi
Wind DirectionSSE (158.7 °)

Weather ElementTotal
Precipitation---
Heating Degree Days36.7 (Base 65)
Averaged from 30 records on February 28, 2013
WEATHER CONDITIONS BREAKOUT
WIND DIRECTION BREAKOUT
WEATHER BY HOUR - FEBRUARY 28, 2013
[ °C ]   °F
Local TimeTemperatureDewpointHumidityBarometerVisibilityWind DirectionWind SpeedGust SpeedPrecipitationEventsConditions
1:55 AM20.8 °F17.1 °F85 %30.28 in10.0 miEast (100°)4.6 mphClear
2:55 AM19.0 °F16.7 °F91 %30.27 in10.0 miCalmClear
3:55 AM19.2 °F16.7 °F90 %30.28 in10.0 miESE (120°)3.5 mphClear
4:55 AM18.5 °F16.5 °F92 %30.29 in10.0 miCalmPartly Cloudy
5:55 AM15.1 °F12.4 °F89 %30.31 in10.0 miCalmPartly Cloudy
6:55 AM16.9 °F14.5 °F91 %30.32 in10.0 miWSW (240°)3.5 mphPartly Cloudy
7:55 AM21.2 °F19.2 °F92 %30.32 in10.0 miCalmScattered Clouds
8:55 AM25.2 °F21.7 °F87 %30.32 in10.0 miSouth (180°)5.8 mphPartly Cloudy
9:55 AM30.6 °F21.9 °F70 %30.31 in10.0 miSSE (150°)5.8 mphPartly Cloudy
10:55 AM33.8 °F20.8 °F59 %30.29 in10.0 miCalmPartly Cloudy
11:55 AM38.8 °F20.8 °F48 %30.26 in10.0 miVariable3.5 mphPartly Cloudy
12:55 PM41.5 °F21.7 °F45 %30.23 in10.0 miNNE (20°)4.6 mphScattered Clouds
1:55 PM41.5 °F20.8 °F44 %30.23 in10.0 miNorth (360°)8.1 mphMostly Cloudy
2:17 PM41.0 °F23.0 °F49 %30.24 in2.0 miNorth (360°)20.7 mph25.3 mph
2:22 PM37.4 °F28.4 °F70 %30.24 in2.5 miNorth (10°)8.1 mph25.3 mphSnowLight Snow
2:27 PM35.6 °F26.6 °F70 %30.25 in3.0 miNNW (330°)6.9 mphSnowLight Snow
2:37 PM35.6 °F28.4 °F75 %30.25 in10.0 miWest (280°)3.5 mphOvercast
2:55 PM37.9 °F27.5 °F66 %30.24 in10.0 miCalm0.00 inMostly Cloudy
3:55 PM38.1 °F24.3 °F57 %30.24 in10.0 miNorth (10°)11.5 mph0.00 inMostly Cloudy
4:55 PM38.7 °F23.5 °F55 %30.24 in10.0 miENE (60°)5.8 mphMostly Cloudy
5:55 PM36.1 °F25.7 °F66 %30.28 in10.0 miWNW (300°)4.6 mphMostly Cloudy
6:12 PM37.4 °F23.0 °F56 %30.28 in10.0 miNNW (330°)15.0 mphSnowLight Snow
6:20 PM37.4 °F23.0 °F56 %30.29 in10.0 miNorth (10°)12.7 mphSnowLight Snow
6:23 PM37.4 °F23.0 °F56 %30.29 in10.0 miNNE (20°)10.4 mphOvercast
6:55 PM35.4 °F26.1 °F69 %30.29 in10.0 miNorth (360°)8.1 mph0.00 inOvercast
7:55 PM35.6 °F23.2 °F61 %30.28 in10.0 miNW (320°)10.4 mphOvercast
8:55 PM34.7 °F24.6 °F67 %30.28 in10.0 miWNW (300°)10.4 mphOvercast
9:55 PM31.5 °F23.4 °F72 %30.28 in10.0 miWNW (290°)5.8 mphOvercast
10:55 PM29.7 °F23.0 °F76 %30.29 in10.0 miNW (310°)9.2 mphPartly Cloudy
11:55 PM26.4 °F20.7 °F79 %30.27 in10.0 miWNW (300°)6.9 mphMostly Cloudy
Hourly data recorded from KRCA, located miles away from Black Hawk, South Dakota







STORIES FROM OUR PARTNERS